FW3944 Weather Reports


time (UTC)temp
C
wind
direction
speed
KPH
gust
KPH
rain 1hr
cm
rain 24hr
cm
rain mn
cm
humidity
%
barometer
mb
20260508163058 15 240 11.3 19.3 0.00 2.64 0.00 69 1000.8
20260508161556 15 257 4.8 12.9 0.00 2.64 0.00 66 1000.7
20260508160056 14 219 3.2 14.5 0.00 2.64 0.00 70 1000.8
20260508154556 15 158 6.4 16.1 0.00 2.64 0.00 71 1000.8
20260508153102 15 180 6.4 14.5 0.00 2.64 0.00 72 1000.7
20260508151555 15 115 1.6 11.3 0.00 2.64 0.00 67 1000.8
20260508150106 15 114 1.6 11.3 0.00 2.64 0.00 66 1000.7
20260508144600 15 115 3.2 14.5 0.00 2.64 0.00 65 1000.9
20260508143059 15 0 1.6 11.3 0.00 2.64 0.00 71 1001.1
20260508141600 15 144 6.4 14.5 0.00 2.64 0.00 72 1001.3
20260508140056 14 107 4.8 12.9 0.00 2.64 0.00 70 1001.4
20260508134613 14 112 4.8 12.9 0.00 2.64 0.00 72 1001.7
20260508133059 13 109 3.2 11.3 0.00 2.64 0.00 73 1001.9
20260508131555 13 0 4.8 12.9 0.00 2.64 0.00 71 1001.8
20260508130100 12 110 3.2 9.7 0.00 2.64 0.00 80 1001.7
20260508124557 12 78 3.2 8.0 0.00 2.64 0.00 80 1001.6
20260508123107 11 105 3.2 11.3 0.00 2.64 0.00 87 1001.6
20260508121559 11 98 1.6 9.7 0.00 2.64 0.00 88 1001.5
20260508120111 10 0 1.6 6.4 0.00 2.64 0.00 90 1001.9
20260508114609 10 0 0.0 4.8 0.00 2.67 0.00 96 1002.1
20260508113122 9 0 0.0 6.4 0.00 2.67 0.00 100 1002.4
20260508111601 8 0 0.0 6.4 0.00 2.67 0.00 100 1002.1
20260508110055 7 94 1.6 4.8 0.00 2.67 0.00 100 1002.3
20260508104607 6 91 0.0 3.2 0.00 2.74 0.00 100 1002.5
20260508103058 5 348 0.0 1.6 0.00 2.74 0.00 100 1002.5
20260508101558 5 66 0.0 3.2 0.00 2.74 0.00 100 1002.4
20260508100054 5 48 0.0 1.6 0.00 2.74 0.00 100 1002.5
20260508094612 5 0 0.0 3.2 0.00 2.74 0.00 100 1002.2
20260508093057 5 48 0.0 3.2 0.00 2.74 0.00 100 1002.0
20260508091554 5 48 0.0 3.2 0.00 2.74 0.00 100 1001.8
20260508090056 5 0 0.0 1.6 0.00 2.74 0.00 100 1001.9
20260508084556 5 0 0.0 3.2 0.00 2.74 0.00 100 1001.9
20260508083054 5 0 0.0 1.6 0.00 2.74 0.00 100 1001.8
20260508081618 6 0 0.0 1.6 0.00 2.74 0.00 100 1001.4
20260508080056 6 0 0.0 3.2 0.00 2.74 0.00 100 1001.3
20260508074555 6 0 0.0 3.2 0.00 2.74 0.00 100 1001.2
20260508073103 6 48 0.0 3.2 0.00 2.74 0.00 100 1001.4
20260508071606 6 48 0.0 1.6 0.00 2.74 0.00 100 1001.4
20260508070057 7 0 1.6 4.8 0.00 2.74 0.00 100 1001.4
20260508064558 7 0 0.0 3.2 0.00 2.74 0.00 100 1001.7
20260508063105 7 0 0.0 3.2 0.00 2.74 0.00 100 1001.6
20260508061559 7 0 0.0 3.2 0.00 2.74 0.00 100 1001.6
20260508054556 7 355 0.0 6.4 0.00 2.74 0.00 100 1001.6
20260508053059 7 355 0.0 4.8 0.00 2.74 0.00 100 1001.5
20260508051557 7 0 0.0 4.8 0.00 2.74 0.00 100 1001.5
20260508044601 7 0 0.0 0.0 0.00 2.74 0.00 100 1001.4
20260508043101 7 0 0.0 0.0 0.00 2.74 0.00 100 1001.4
20260508041558 8 0 0.0 0.0 0.00 2.74 0.00 100 1001.6
20260508040103 8 0 0.0 0.0 0.00 2.74 0.00 100 1001.6
20260508034559 8 0 0.0 0.0 0.00 2.74 0.00 100 1001.6
20260508033059 8 0 0.0 0.0 0.00 2.74 0.00 100 1002.0
20260508031558 8 0 0.0 0.0 0.00 2.74 0.00 100 1001.9
20260508030055 8 0 0.0 0.0 0.03 2.74 0.00 100 1002.1
20260508024558 9 0 0.0 0.0 0.03 2.74 2.74 100 1002.0
20260508023059 9 0 0.0 6.4 0.03 2.74 2.74 100 1002.1
20260508021558 9 0 0.0 0.0 0.03 2.74 2.74 100 1002.2
20260508020103 9 0 0.0 0.0 0.00 2.72 2.72 100 1002.1
20260508014559 9 0 0.0 3.2 0.00 2.72 2.72 100 1002.2
20260508013056 9 164 1.6 6.4 0.00 2.72 2.72 100 1002.1
20260508011559 9 0 0.0 3.2 0.00 2.72 2.72 100 1001.8
20260508010057 9 0 1.6 6.4 0.00 2.72 2.72 100 1001.6
20260508004603 9 0 0.0 3.2 0.00 2.72 2.72 100 1001.9
20260508003105 9 0 0.0 0.0 0.00 2.72 2.72 100 1002.2
20260508001555 9 0 0.0 3.2 0.00 2.72 2.72 100 1002.3
20260508000058 9 164 0.0 3.2 0.00 2.72 2.72 100 1002.3
20260507234558 9 0 0.0 1.6 0.00 2.72 2.72 100 1002.4
20260507233056 9 0 0.0 6.4 0.00 2.72 2.72 100 1002.3
20260507231558 9 165 1.6 3.2 0.00 2.72 2.72 100 1002.2
20260507230101 9 0 0.0 3.2 0.00 2.72 2.72 100 1002.1
20260507224600 9 0 0.0 8.0 0.00 2.72 2.72 100 1002.2
20260507223056 10 0 0.0 6.4 0.00 2.72 2.72 100 1002.1
20260507221600 10 164 1.6 8.0 0.00 2.72 2.72 100 1002.4
20260507220056 10 0 3.2 8.0 0.00 2.72 2.72 100 1002.4
20260507214605 10 0 1.6 8.0 0.03 2.72 2.72 100 1002.4
20260507213057 10 164 4.8 8.0 0.03 2.72 2.72 100 1002.8
20260507211605 10 0 0.0 3.2 0.05 2.72 2.72 100 1002.4
20260507204557 10 249 4.8 11.3 0.18 2.67 2.67 100 1002.5
20260507203106 10 169 4.8 9.7 0.30 2.67 2.67 100 1002.5
20260507201612 10 167 3.2 11.3 0.51 2.64 2.64 100 1002.4
20260507200109 10 0 1.6 9.7 0.64 2.62 2.62 100 1003.0
20260507194557 10 0 1.6 11.3 0.71 2.51 2.51 100 1002.8
20260507193059 10 158 0.0 8.0 0.84 2.39 2.39 100 1003.7
20260507191600 10 0 0.0 0.0 0.86 2.16 2.16 100 1004.6
20260507190104 10 0 0.0 1.6 0.94 1.98 1.98 100 1004.7
20260507184600 9 0 0.0 1.6 1.14 1.78 1.78 100 1004.6
20260507183058 9 164 0.0 6.4 1.19 1.55 1.55 100 1004.8
20260507181601 9 184 3.2 11.3 1.04 1.30 1.30 100 1005.1
20260507180055 9 194 0.0 12.9 0.89 1.04 1.04 100 1005.3
20260507174558 9 259 4.8 19.3 0.51 0.61 0.61 100 1005.4
20260507173103 9 169 6.4 22.5 0.25 0.36 0.36 100 1004.8
20260507171600 9 281 8.0 25.7 0.15 0.25 0.25 100 1004.8
20260507170104 9 230 6.4 17.7 0.08 0.15 0.15 100 1005.1
20260507164601 9 152 4.8 20.9 0.03 0.10 0.10 100 1005.4